Dewpoint
41 41 40 40 40 38 39 41 39 38 38 39 37 37 36 35 35 34 33 38 37 35 35 35 37 40 40 38 33 38 37 38 37 34 32 31 31 33 32 31 31 30 29 29 31 28 22 30 36 33 32 35 35 34
42 42 41 40 39 39 38 40 38 35 37 39 37 35 37 37 34 35 32 34 37 35 35 37 36 37 37 40 43 40 39 38 38 36 34 35 33 33 33 29 32 30 30 29 29 27 29 32 34 35 35 35 34 35
43 42 41 40 39 39 39 39 41 39 36 39 37 35 37 34 35 35 34 35 35 34 33 34 35 40 41 41 45 40 40 41 40 42 38 37 34 35 30 32 34 33 32 31 32 32 32 35 35 35 34 33 34 38
42 43 42 41 38 39 38 39 40 41 37 34 36 36 36 35 36 37 35 35 35 33 29 32 41 42 46 46 46 45 44 45 44 42 38 37 34 38 34 36 35 35 35 34 33 34 35 35 34 34 33 37 36 38
41 42 41 42 38 39 39 39 40 42 39 36 37 35 36 36 37 36 36 36 36 32 29 32 37 40 46 46 45 45 44 43 42 40 39 36 38 37 36 35 34 35 33 33 33 35 35 35 34 34 33 34 33 33
42 42 42 40 41 40 38 38 40 41 34 35 36 38 36 37 37 37 29 40 37 36 31 27 41 44 45 45 45 44 44 44 43 40 39 40 40 37 35 33 33 34 35 35 35 35 35 35 34 33 32 32 32 31
43 41 42 41 42 41 39 38 39 41 37 37 37 36 36 37 39 33 29 37 41 37 31 29 35 44 44 44 43 43 44 43 43 41 40 40 39 40 37 32 34 36 37 37 37 36 35 34 34 32 32 31 31 29
43 41 40 40 41 40 40 38 39 39 37 37 37 36 37 40 38 34 35 39 39 34 33 28 34 40 45 42 40 44 43 44 43 41 41 39 39 39 34 37 38 39 39 38 38 36 36 35 32 31 30 29 27 26
43 41 40 40 41 41 39 39 40 37 37 36 37 39 40 38 33 37 41 40 39 34 29 31 33 33 44 41 42 42 43 38 41 39 38 40 36 34 37 39 39 38 38 38 36 35 34 33 32 30 29 28 26 25
43 40 40 39 40 42 38 39 40 38 36 36 37 32 32 34 38 39 38 34 32 34 33 31 39 36 41 40 39 39 41 37 35 38 40 37 34 38 33 32 32 31 33 36 36 35 34 33 32 30 29 28 27 25
43 41 40 40 41 42 38 39 39 37 35 33 30 29 34 38 37 35 31 29 31 30 35 36 39 36 41 35 37 39 36 37 32 34 33 32 34 31 31 30 31 32 34 35 36 37 36 35 33 31 30 29 28 25
43 41 41 40 41 42 38 40 38 36 33 32 34 37 37 34 32 28 28 31 30 31 37 37 37 39 39 41 36 37 34 35 29 34 32 28 33 31 31 30 32 33 34 34 35 37 36 35 34 32 31 31 28 25
44 42 41 41 41 41 38 40 38 36 36 37 32 29 29 31 25 26 26 30 31 32 34 35 35 38 38 39 36 34 30 29 32 31 28 30 31 30 30 30 31 32 33 33 33 34 35 35 34 33 30 27 23 21
43 40 42 41 42 40 39 40 38 34 33 27 25 23 25 25 26 26 29 30 32 32 33 35 36 36 36 35 34 31 32 32 27 26 27 30 30 30 29 29 29 30 30 33 32 33 34 35 35 33 29 25 24 24
42 42 41 41 42 41 40 38 34 36 29 25 26 21 24 28 29 31 32 32 33 34 34 35 35 36 33 33 33 32 29 26 26 26 29 29 30 29 29 28 29 30 29 29 31 32 32 33 32 31 30 28 27 28
43 42 41 41 40 39 38 35 35 35 28 26 25 24 27 26 27 27 28 30 33 31 34 34 33 33 33 31 30 27 26 25 27 28 29 30 28 29 28 28 28 29 29 28 29 30 30 30 31 30 29 28 24 21
42 39 40 39 39 37 34 33 33 29 26 24 24 27 28 28 27 27 26 27 29 31 31 32 30 30 33 31 28 29 28 28 28 29 28 27 27 28 28 28 28 28 28 28 28 28 28 28 26 24 23 22 21 20
39 40 39 38 36 33 31 33 29 26 23 24 23 26 27 27 27 26 27 27 28 30 31 30 29 29 29 29 28 28 28 28 28 27 27 26 27 28 28 28 29 28 27 28 27 26 26 26 25 23 22 21 19 18
39 39 40 39 36 30 26 27 28 22 23 25 25 25 25 26 26 25 25 26 28 28 27 29 27 27 28 29 28 28 27 26 25 25 25 26 27 27 27 28 29 28 27 27 28 27 26 25 24 22 20 19 18 17
41 40 40 40 33 24 20 25 27 24 21 22 24 24 24 24 23 23 22 23 25 25 22 23 25 28 29 27 27 26 26 25 24 21 20 24 24 26 26 27 28 27 27 27 27 27 24 23 22 21 19 18 17 17
40 40 38 35 31 27 24 24 22 24 24 21 23 22 21 22 21 20 21 23 23 23 19 22 24 26 26 24 23 22 21 22 18 18 18 19 23 23 25 25 27 27 27 27 26 26 25 22 22 20 20 19 17 17
35 36 32 32 26 23 22 26 23 24 20 21 20 21 18 17 19 19 20 20 20 20 23 25 25 25 23 18 16 18 15 16 17 20 21 21 20 21 21 21 23 24 26 26 26 26 25 24 21 20 19 18 18 18
35 33 29 28 25 24 20 23 19 21 16 18 18 14 15 17 19 21 16 18 18 20 24 23 22 19 19 16 16 15 16 15 13 14 15 17 18 19 20 22 23 23 23 24 26 26 26 24 22 19 18 17 17 19
33 30 26 24 24 19 19 17 20 20 19 16 14 9 14 17 19 17 13 16 20 22 22 21 19 17 14 15 14 14 14 17 15 15 16 15 14 15 18 19 20 20 21 23 26 26 26 22 22 19 17 17 19 20
27 24 24 19 18 13 9 14 15 16 13 14 13 10 13 16 12 12 11 11 18 22 21 20 18 16 17 15 14 15 15 14 11 11 13 15 15 16 16 16 16 17 20 23 25 25 25 23 21 18 17 18 19 17
23 21 20 17 14 11 9 10 12 12 13 12 12 13 13 13 8 -2 7 12 16 19 20 20 19 18 17 16 15 14 14 14 14 13 13 13 14 14 13 14 16 16 19 20 24 25 25 23 22 18 17 19 20 16
20 19 20 19 13 13 12 11 13 12 10 6 11 10 11 0 -4 1 11 16 17 18 19 20 20 18 16 15 15 15 14 12 12 12 13 13 14 15 15 14 13 13 15 17 18 23 25 24 23 21 22 22 21 16
21 16 17 13 10 12 6 6 6 3 6 11 10 5 1 -3 -4 5 12 16 17 16 15 15 15 15 15 13 10 11 11 12 12 11 12 13 14 14 14 15 16 17 18 19 20 20 25 25 24 23 23 22 22 17
16 14 12 10 9 8 7 2 1 7 11 12 3 0 4 10 13 12 13 13 12 13 13 12 10 8 10 11 11 11 11 11 11 10 9 9 9 10 11 14 16 17 18 21 22 24 25 26 25 24 24 22 20 20
16 16 12 10 9 13 10 11 12 11 12 13 12 11 12 11 11 13 12 10 9 8 8 7 8 10 10 10 10 9 9 10 11 11 9 9 9 10 11 13 15 17 20 21 23 25 27 30 27 25 21 19 18 18
18 16 12 11 11 11 9 8 9 11 10 10 9 9 8 9 9 10 11 10 9 7 9 9 9 8 9 10 9 10 10 10 10 10 11 13 13 14 15 16 16 17 19 20 23 25 27 24 21 19 18 17 18 16
17 16 14 13 11 7 8 8 9 9 9 8 8 7 7 8 7 8 8 8 8 9 10 10 10 11 9 10 11 12 16 16 16 17 17 16 15 15 15 15 15 17 19 22 24 25 21 18 17 17 16 16 14 14
14 13 12 10 9 9 8 8 8 7 7 7 7 7 6 7 7 7 8 7 8 9 10 10 10 10 12 13 14 15 14 14 15 20 21 22 22 20 17 17 19 21 22 20 19 19 18 17 16 15 14 14 14 14
Wind_Speed
8 7 9 12 12 14 16 18 14 16 16 14 15 15 15 12 11 8 9 6 3 3 13 7 6 5 7 4 6 4 4 2 2 3 3 2 2 2 2 5 9 12 10 6 8 7 9 6 6 4 6 5 4 3
8 6 8 12 13 13 16 17 12 14 16 15 14 15 14 13 13 7 4 8 5 6 8 7 21 23 14 14 3 4 2 4 5 4 3 2 2 2 2 4 4 6 10 8 13 10 11 6 9 5 2 6 5 3
9 6 7 12 14 14 16 17 18 12 16 14 15 15 15 15 15 9 5 6 5 5 10 7 12 11 16 18 9 4 2 3 2 2 4 2 3 1 3 5 3 4 11 6 3 9 14 11 0 2 3 5 4 4
8 7 9 13 13 14 17 18 20 13 15 17 16 16 16 16 15 15 7 6 4 5 6 8 6 8 5 9 7 4 4 5 5 3 3 3 2 4 4 6 7 7 9 3 8 15 6 2 1 2 1 1 3 9
9 9 13 13 13 14 16 17 19 19 16 18 17 17 18 18 18 13 9 11 14 8 5 9 18 7 4 6 8 5 9 6 3 3 3 5 3 4 5 5 9 7 11 11 9 8 4 4 2 2 2 3 6 13
11 11 11 10 12 15 15 16 19 15 18 19 19 18 19 19 16 1 4 5 11 12 3 6 5 5 6 7 9 8 6 2 2 3 4 3 3 5 4 5 8 12 11 15 16 5 3 4 4 3 5 6 8 11
10 12 11 10 9 13 16 17 19 16 19 20 20 21 20 17 3 4 4 1 11 7 3 6 3 5 11 7 3 3 3 2 3 3 4 3 4 7 4 11 9 15 23 19 8 5 4 6 4 6 9 10 12 12
14 15 11 9 12 12 17 17 19 17 20 22 23 18 11 1 4 3 6 9 4 1 4 5 1 5 7 6 5 5 6 4 5 3 2 4 2 5 6 8 15 16 17 10 11 9 5 9 11 10 12 15 15 16
17 15 10 9 12 11 15 17 19 18 21 24 15 5 2 1 0 1 5 11 7 4 4 4 1 5 4 4 5 4 4 6 5 6 4 5 3 6 5 13 17 16 11 10 2 4 8 9 12 14 14 13 15 14
16 15 11 9 11 10 15 16 17 17 20 14 4 1 1 1 4 2 2 3 3 4 5 4 4 4 4 3 5 6 4 3 4 4 3 4 5 2 14 15 14 15 14 10 7 7 7 8 14 15 15 14 13 14
17 14 11 7 10 8 14 16 12 14 6 3 5 2 5 7 3 2 3 3 3 4 4 5 2 5 5 3 4 1 4 3 3 3 2 3 3 9 16 18 19 17 16 14 13 14 7 7 16 17 16 14 15 15
17 15 12 8 9 6 12 14 9 3 2 2 5 4 3 2 1 2 4 2 4 2 1 1 3 2 2 2 3 2 3 2 4 1 2 2 1 13 16 19 20 20 18 17 11 10 6 6 13 18 17 18 17 17
17 14 11 9 8 3 9 11 8 9 7 0 1 1 2 3 3 4 3 3 2 4 5 4 1 2 2 2 3 2 3 4 2 1 2 1 10 14 17 17 19 18 17 17 13 7 2 6 11 15 17 16 20 20
17 14 11 11 4 1 9 7 6 5 2 1 1 3 5 3 5 3 1 1 1 2 6 4 1 2 2 2 2 3 1 2 1 2 3 5 14 16 16 15 16 19 17 14 13 11 4 7 10 12 14 19 21 21
19 15 12 10 5 3 5 3 4 1 0 2 2 4 6 4 2 1 1 2 1 3 3 1 1 1 2 2 2 2 2 3 5 4 2 7 12 14 16 17 16 16 15 13 9 8 4 6 11 12 10 12 15 19
18 11 7 7 3 5 4 2 1 0 1 2 4 4 4 0 3 3 3 3 1 3 2 1 0 1 3 2 2 6 3 6 3 3 2 8 11 13 15 16 15 14 14 12 10 6 1 4 9 11 12 12 13 16
16 4 13 11 11 8 4 2 1 2 3 3 5 7 6 3 1 3 1 1 2 1 2 1 4 5 1 3 3 3 3 3 3 2 5 9 10 11 13 14 16 15 14 12 10 7 2 4 9 12 14 9 13 13
3 12 18 16 10 4 2 2 2 2 5 7 4 4 4 2 2 2 0 3 2 1 0 2 0 3 5 5 5 4 3 1 2 2 8 11 11 9 11 13 16 15 14 12 10 6 2 7 10 10 13 15 17 17
14 17 19 19 7 4 4 2 2 3 7 3 4 1 1 1 2 1 0 2 1 0 0 1 4 5 5 3 6 7 4 3 3 4 9 10 4 11 13 13 15 14 14 13 10 8 5 5 8 11 13 14 15 13
21 22 20 18 8 3 2 2 1 2 3 2 2 1 2 2 0 1 1 1 1 2 3 6 8 5 5 5 3 5 4 4 3 5 6 3 6 9 12 12 12 14 13 11 10 5 4 2 5 10 12 13 16 17
11 11 15 6 2 2 2 4 3 3 2 2 0 2 2 0 2 2 2 4 3 5 7 9 7 5 6 6 6 5 4 5 4 4 5 8 8 9 12 12 12 11 12 13 11 10 7 9 8 10 12 12 11 12
5 10 5 2 3 2 1 1 2 2 3 1 1 0 2 3 4 4 3 6 7 8 8 5 7 11 9 6 6 6 4 3 5 6 8 8 9 11 11 12 10 11 12 13 14 14 14 10 9 12 13 13 13 14
12 5 4 3 3 5 3 1 2 3 3 2 0 2 3 3 3 3 5 6 7 8 7 4 7 5 8 4 3 5 6 7 7 8 9 10 11 11 12 12 9 12 14 13 12 15 15 11 12 12 13 14 15 16
5 5 5 9 5 5 4 4 2 2 1 2 3 3 4 4 3 3 6 5 6 5 10 10 9 8 3 4 9 12 10 11 9 11 9 11 15 16 11 13 12 13 14 17 14 15 13 11 13 13 14 16 17 19
7 5 7 5 3 6 6 6 5 5 5 5 4 4 4 4 3 4 5 5 5 11 11 10 11 12 14 11 9 10 7 8 8 15 9 10 13 15 14 12 14 15 14 13 13 13 13 11 12 15 16 17 19 20
8 10 13 15 9 8 12 7 10 10 6 7 8 2 2 3 3 8 5 4 6 8 14 16 16 15 16 17 16 13 8 8 7 13 15 10 12 13 15 17 16 13 6 11 13 13 13 12 14 17 17 19 22 20
10 9 7 3 7 6 5 2 3 4 7 8 6 8 6 5 8 5 4 6 5 6 8 12 14 17 18 10 7 6 4 5 10 14 12 11 11 12 14 19 24 16 11 14 15 15 14 15 16 18 17 16 19 20
5 10 14 14 5 4 5 7 7 8 7 6 10 8 7 8 4 3 6 2 4 5 5 4 5 7 7 7 7 9 11 8 11 13 15 15 16 17 18 20 20 24 19 17 17 17 15 15 17 18 19 19 18 18
6 12 10 9 5 6 9 12 7 7 6 10 8 7 5 5 3 3 3 4 5 5 6 8 7 3 5 5 6 9 11 11 12 19 22 22 18 12 11 15 16 15 14 15 19 20 19 18 18 19 20 19 18 19
9 10 7 9 10 12 10 8 3 1 1 2 1 3 3 4 4 3 5 6 9 12 10 6 5 5 9 9 13 13 10 12 13 15 18 19 14 11 11 14 15 13 12 13 16 15 18 18 19 17 19 20 20 21
13 5 6 6 6 2 2 1 1 1 1 2 1 4 5 7 7 6 11 9 8 6 7 10 9 8 9 11 11 13 16 9 12 16 19 19 18 17 16 15 14 14 14 15 15 13 13 15 17 20 21 21 23 23
5 7 8 7 4 2 2 2 2 1 1 2 3 2 3 3 6 5 5 8 8 10 11 9 8 7 6 8 10 12 17 18 17 17 19 19 18 19 18 16 15 14 15 15 12 11 19 21 20 20 21 23 23 24
4 4 5 6 4 5 2 4 1 3 3 3 3 2 3 3 7 3 1 8 6 7 9 8 8 7 8 9 10 12 16 15 18 20 21 19 19 20 16 13 11 12 9 12 15 19 22 23 22 22 23 25 26 26
Wind_Direction
277 307 323 349 334 327 320 326 339 332 331 335 335 332 334 343 350 7 299 352 3 278 285 276 300 316 343 127 172 182 112 253 152 150 155 171 200 269 275 163 174 179 178 196 196 229 265 214 127 214 260 277 283 298
268 295 336 316 313 325 316 319 320 330 322 326 331 325 323 329 330 351 292 312 302 238 264 289 276 261 250 247 351 171 286 155 169 125 185 144 235 251 269 261 178 200 195 191 198 216 244 248 261 275 304 287 294 241
266 289 318 308 315 320 319 317 320 322 323 325 324 323 319 318 316 304 268 283 310 276 282 252 253 262 219 227 222 202 250 182 122 134 125 146 248 291 250 246 298 267 207 236 194 267 253 276 63 22 331 292 285 160
251 289 299 298 313 322 322 316 315 313 322 321 318 315 316 311 303 299 255 247 265 274 271 273 251 259 173 181 204 214 152 92 112 97 132 157 236 202 245 264 264 252 320 259 267 279 297 228 311 311 340 28 91 140
238 269 286 290 312 319 319 315 315 321 323 319 315 313 308 315 300 290 266 245 221 227 294 288 311 241 173 177 187 172 146 129 154 150 165 209 202 233 238 266 250 213 225 234 246 281 267 268 264 248 162 155 133 130
248 259 289 307 317 321 323 315 313 317 326 318 312 314 314 316 312 313 293 39 211 191 259 275 292 164 162 175 173 171 173 158 147 183 202 217 224 187 250 258 255 244 256 244 260 259 249 169 150 161 144 147 135 133
246 267 276 296 301 310 320 316 315 326 325 318 316 315 317 312 281 165 224 143 6 140 229 268 243 131 146 124 114 112 108 149 196 217 225 229 219 197 246 270 274 296 298 294 295 217 234 210 228 155 142 132 124 115
239 251 264 290 302 314 322 319 318 329 325 321 318 314 320 316 105 236 258 214 109 143 253 269 239 118 158 142 139 155 163 170 205 239 209 218 197 219 257 274 306 302 309 304 305 213 201 140 135 142 137 133 129 129
235 247 248 271 295 309 320 319 325 332 330 325 323 337 65 255 207 27 345 117 120 212 275 266 117 126 171 107 104 148 163 189 179 211 225 168 219 234 292 311 312 332 331 313 60 105 143 164 169 160 153 149 147 147
236 241 240 262 292 314 316 320 333 340 334 328 24 134 99 38 302 267 124 238 219 218 230 265 284 94 176 124 164 143 182 186 216 214 138 203 251 303 6 341 331 328 325 315 234 242 208 202 186 179 179 170 165 158
231 231 234 258 295 309 320 323 343 347 6 21 19 333 317 321 235 196 255 229 206 254 217 250 303 128 12 123 128 89 158 157 219 214 210 220 211 345 338 335 331 328 319 309 286 278 237 224 197 181 178 168 154 152
214 227 230 252 291 311 324 329 347 11 287 242 282 285 272 299 241 230 236 230 224 255 289 335 12 58 87 56 117 148 151 156 237 87 184 237 118 338 340 336 333 330 333 330 307 254 254 218 188 178 169 164 162 145
216 217 225 244 285 353 314 321 333 322 313 196 143 293 220 172 247 224 217 225 205 347 346 355 107 46 83 66 80 144 180 213 147 186 232 193 341 340 342 336 335 340 354 357 357 353 300 198 173 170 157 148 144 145
198 212 224 244 247 290 297 297 335 328 321 21 99 262 204 191 242 233 196 192 322 322 341 336 38 79 51 106 133 173 192 114 213 230 236 356 340 331 332 334 341 343 347 355 356 347 346 162 154 149 152 151 149 154
197 210 226 253 225 235 293 301 344 315 263 252 162 236 220 247 293 357 359 314 300 298 341 28 341 351 61 153 184 140 171 224 219 211 118 336 335 337 336 339 342 343 344 346 347 357 2 141 146 143 146 152 152 152
188 212 216 174 220 246 172 17 74 298 221 238 238 267 244 201 227 305 287 259 254 337 331 71 98 170 221 198 175 209 206 222 177 111 327 337 338 340 344 343 340 338 340 344 346 339 328 164 169 165 157 160 158 160
172 203 156 152 142 126 112 113 117 210 245 231 245 239 254 278 134 216 239 303 352 52 230 173 203 190 174 194 223 221 230 119 84 331 325 332 331 330 342 347 348 343 344 345 341 336 306 158 147 150 158 152 146 145
150 157 156 145 137 120 118 126 176 223 243 239 249 258 217 261 149 286 42 19 9 349 258 238 339 220 214 205 193 151 137 87 278 282 312 321 330 336 340 341 345 343 341 342 339 325 259 180 179 171 152 146 137 136
154 161 162 159 143 142 149 188 175 246 237 267 292 327 307 342 77 199 126 8 324 266 307 252 233 221 230 182 151 158 159 175 240 292 294 300 324 343 340 335 331 339 338 331 327 316 284 240 210 172 160 155 153 151
152 159 158 154 141 139 145 211 157 235 247 262 253 224 211 262 85 65 341 302 216 182 210 210 219 220 191 174 143 135 167 197 240 286 300 273 326 325 327 331 329 327 328 325 316 303 288 246 189 182 174 166 160 164
120 124 106 95 77 76 174 184 213 221 288 258 23 188 248 19 240 206 218 186 228 223 232 229 225 193 140 135 139 157 187 202 228 241 279 297 303 313 318 325 324 319 315 318 312 294 268 250 228 199 186 179 170 160
117 114 102 81 109 126 161 187 188 157 183 217 248 211 251 235 209 203 186 197 231 238 215 201 189 171 177 182 186 193 209 236 260 269 280 287 294 307 309 306 316 313 310 304 304 294 277 255 225 204 184 169 154 150
106 93 95 125 134 186 215 139 188 198 202 215 118 258 241 231 193 108 235 229 249 233 206 172 167 166 188 166 189 229 234 239 276 295 303 301 295 289 287 282 287 299 301 298 299 294 278 249 213 191 172 158 154 155
103 113 153 177 177 180 142 186 208 200 174 210 215 247 226 203 148 216 252 242 240 190 183 181 168 170 186 227 237 240 229 215 247 269 269 283 291 292 284 289 287 275 270 279 285 283 270 233 197 179 173 170 168 164
130 177 162 173 164 148 181 180 184 194 226 188 210 241 208 162 198 240 244 256 216 201 198 188 198 210 222 237 254 250 210 207 257 291 277 229 263 282 286 278 280 277 269 281 284 276 255 220 195 184 181 182 179 171
187 190 185 183 170 178 190 181 197 198 172 184 224 184 157 167 231 242 230 230 221 207 201 202 208 219 236 232 250 257 263 219 233 267 280 251 258 263 275 286 290 286 258 280 289 271 240 211 201 193 193 195 189 171
178 185 185 187 156 145 167 140 135 164 188 206 190 174 169 220 235 242 244 219 209 218 207 204 203 218 238 250 233 243 240 234 251 263 280 274 265 251 252 264 268 266 264 270 274 270 244 215 206 200 197 196 195 183
174 164 168 171 147 157 160 175 188 208 206 188 149 189 202 209 242 227 213 183 183 148 142 142 174 207 228 251 277 287 292 284 289 292 291 280 257 254 250 250 255 264 265 260 257 260 261 220 207 198 193 187 181 176
153 142 119 149 135 178 208 195 217 217 178 172 192 209 228 228 250 234 217 194 150 166 219 233 239 283 280 282 276 269 272 275 291 295 291 286 290 279 250 253 256 259 255 254 260 253 246 224 204 194 186 172 163 157
161 160 124 160 172 200 203 189 195 170 177 183 270 292 266 258 260 208 197 195 215 231 240 244 243 242 268 284 290 294 280 260 240 244 267 274 273 276 286 293 298 294 284 282 278 253 254 217 199 173 152 150 154 153
137 125 122 157 193 158 130 118 55 95 29 272 287 241 263 307 300 248 228 224 218 205 216 237 243 245 248 264 275 298 305 286 257 250 250 258 266 268 268 266 265 271 275 277 266 226 197 163 153 151 153 154 159 150
129 160 142 152 160 139 106 123 134 206 289 277 246 247 289 279 263 265 192 150 172 203 215 212 224 257 229 254 274 272 275 282 281 275 269 261 259 258 258 259 260 260 260 261 217 173 143 141 147 150 149 145 142 140
98 93 96 113 124 151 140 120 173 262 238 247 249 227 238 239 250 288 250 209 210 210 210 218 233 256 279 285 288 301 308 298 292 293 304 292 258 250 245 240 243 250 212 153 143 143 141 140 140 141 142 142 141 137